Vertical_Velocity
-5 1 -0 2 3 -2 4 3 1 -2 0 -0 2 0 -0 2 1 -0 2 0 0 1 2 1 1 3 5 -1 -2 -6 13 13
5 -0 4 -0 1 3 -1 6 4 3 -1 2 2 4 3 2 2 -1 -2 1 1 0 -1 1 1 1 4 0 1 -6 -7 9
10 -1 1 1 -0 -0 0 1 6 1 3 2 1 3 -0 2 2 -0 -3 -1 1 -0 -0 -1 2 1 -0 1 0 -5 -10 24
-2 -1 -2 8 5 -4 1 -1 1 1 -0 -3 0 0 -2 -1 -3 -1 1 -1 4 2 2 2 2 -0 -2 -1 -3 -1 -4 7
-7 2 1 -1 -6 10 -4 -3 -3 3 1 -1 -0 -0 5 -6 3 2 -1 0 -2 -1 -4 1 -0 4 1 -6 -7 1 5 0
2 3 -0 2 3 -6 -8 -4 -3 -0 2 1 -0 -7 -1 6 -0 1 -0 -4 -2 -2 -2 1 -1 8 5 -2 -8 2 -8 17
19 -3 7 2 2 5 3 -0 -10 -10 2 -1 2 -1 -4 -11 12 6 -4 4 -2 4 -3 -8 6 -1 4 -0 -3 2 -1 -4
-2 -5 11 -0 3 3 2 6 9 2 -1 -7 -2 5 -0 4 -2 5 5 7 -4 3 0 -1 -6 1 3 -1 -2 -6 -3 2
1 -3 -2 8 5 3 1 2 3 10 -7 -1 1 1 1 -3 -11 -1 -8 22 -7 2 1 3 0 -0 5 -3 1 1 -4 -6
4 2 -2 2 7 4 4 -1 3 -2 10 0 -8 -4 2 3 -4 -6 4 -1 -3 6 -1 1 -2 -1 -1 4 -3 1 -0 -4
-0 -3 -4 1 -1 8 -0 -0 2 2 6 -1 -0 -1 -4 3 -1 -1 -2 0 0 -1 2 -1 -3 -0 -1 -1 2 -1 0 1
1 2 1 2 1 -3 6 5 -0 -4 2 5 0 -0 3 6 -4 -1 2 -3 -3 -4 -2 2 -1 4 -3 -1 -3 -2 -2 3
1 3 1 1 0 6 0 -3 -0 3 -6 7 3 -0 2 -4 -1 -4 -3 -3 1 4 4 0 -4 6 2 7 3 1 -2 1
-0 0 3 -1 0 2 11 12 7 -2 -2 -4 0 6 -1 -7 1 -2 -3 -0 -2 2 4 4 8 -2 -4 3 -0 -0 -5 -2
-7 1 2 2 -0 -8 -6 -7 -8 24 -6 -1 -5 2 9 -2 3 5 2 3 -6 -2 -4 2 -2 5 3 -11 -2 -8 11 -3
1 -3 -0 -0 4 -1 2 -2 11 11 0 -5 -4 6 3 -3 3 7 -1 1 -1 -5 5 -3 7 -7 12 -10 -1 8 10 13
1 -1 -2 0 -0 2 0 -2 -3 -7 0 18 -3 -3 2 9 3 3 5 -2 1 1 -1 -4 -1 4 -2 3 1 -2 -7 -2
-1 -0 2 -0 1 -0 -0 -3 -2 -5 -3 25 -2 1 -4 0 4 3 2 -2 1 -2 2 4 1 0 -0 5 -8 -9 -5 -1
-0 1 -2 -1 -0 2 0 -1 0 -3 -7 -8 41 -6 1 -6 4 2 1 -7 -4 5 -2 0 -5 -4 5 -7 9 -6 -1 2
-3 -1 0 -1 -0 1 -3 1 -2 -3 -4 -10 -4 42 -4 9 1 3 5 5 7 0 -4 2 1 -1 -5 -11 2 -3 -2 -1
Height
1482 1482 1486 1489 1493 1497 1500 1500 1501 1505 1507 1510 1512 1514 1517 1519 1521 1523 1525 1526 1528 1530 1530 1531 1533 1533 1534 1535 1537 1539 1540 1541
1483 1482 1484 1487 1491 1494 1498 1501 1502 1503 1506 1509 1512 1514 1516 1518 1520 1522 1524 1525 1527 1529 1530 1531 1532 1533 1535 1535 1537 1538 1540 1541
1481 1481 1483 1487 1489 1492 1495 1499 1502 1503 1505 1508 1511 1513 1515 1517 1518 1520 1522 1524 1526 1527 1529 1530 1531 1533 1534 1535 1537 1538 1541 1543
1476 1477 1481 1487 1491 1491 1493 1496 1499 1500 1502 1504 1508 1511 1513 1516 1517 1518 1520 1522 1524 1526 1527 1528 1530 1531 1532 1534 1536 1539 1542 1543
1474 1476 1477 1480 1488 1492 1492 1494 1497 1498 1499 1501 1505 1510 1512 1513 1516 1515 1517 1519 1521 1523 1524 1526 1529 1532 1533 1533 1535 1538 1541 1542
1475 1474 1475 1477 1482 1485 1489 1493 1495 1498 1498 1499 1501 1506 1510 1512 1513 1513 1514 1516 1518 1519 1521 1523 1527 1530 1531 1532 1535 1537 1539 1541
1475 1473 1474 1475 1476 1479 1481 1484 1486 1493 1497 1497 1500 1501 1504 1510 1511 1511 1512 1515 1515 1517 1518 1522 1525 1527 1529 1529 1531 1534 1536 1538
1474 1473 1473 1473 1474 1476 1477 1479 1485 1484 1486 1490 1495 1499 1499 1504 1509 1511 1511 1512 1512 1514 1516 1517 1521 1523 1525 1527 1528 1530 1533 1535
1472 1472 1470 1471 1471 1473 1474 1476 1479 1482 1482 1482 1486 1492 1495 1495 1501 1506 1509 1510 1509 1510 1513 1515 1517 1520 1522 1524 1525 1526 1527 1530
1468 1469 1469 1468 1469 1470 1472 1472 1474 1476 1479 1477 1478 1483 1489 1491 1492 1497 1503 1507 1506 1507 1508 1511 1513 1516 1518 1520 1521 1523 1524 1526
1465 1463 1463 1462 1462 1465 1466 1467 1469 1470 1472 1472 1472 1476 1480 1485 1487 1489 1494 1500 1502 1503 1503 1504 1509 1512 1514 1516 1518 1520 1521 1521
1461 1460 1458 1457 1455 1457 1460 1461 1462 1463 1466 1466 1466 1468 1471 1476 1482 1483 1486 1490 1494 1496 1499 1501 1504 1507 1509 1512 1514 1516 1517 1518
1457 1455 1453 1451 1451 1452 1453 1453 1455 1454 1455 1460 1461 1463 1465 1468 1471 1477 1477 1479 1483 1488 1492 1496 1499 1503 1506 1508 1509 1511 1512 1513
1453 1449 1447 1446 1446 1446 1446 1447 1448 1447 1450 1450 1455 1457 1457 1460 1463 1468 1469 1471 1475 1482 1485 1489 1493 1495 1499 1503 1504 1507 1506 1508
1447 1444 1441 1439 1438 1438 1438 1436 1435 1438 1437 1443 1445 1449 1449 1451 1454 1458 1464 1463 1465 1472 1478 1481 1485 1488 1491 1495 1498 1498 1500 1500
1443 1440 1434 1432 1431 1431 1432 1431 1429 1431 1432 1431 1436 1438 1441 1442 1446 1449 1454 1455 1458 1462 1467 1473 1478 1479 1484 1486 1489 1492 1494 1495
1437 1433 1429 1426 1423 1422 1422 1422 1422 1421 1420 1422 1422 1428 1432 1434 1436 1440 1443 1446 1450 1453 1459 1463 1467 1473 1473 1478 1483 1486 1489 1490
1429 1425 1422 1418 1415 1412 1411 1410 1411 1412 1411 1412 1413 1417 1421 1424 1428 1430 1433 1438 1441 1445 1450 1454 1459 1464 1467 1470 1473 1477 1481 1484
1422 1417 1412 1409 1405 1402 1400 1398 1399 1401 1402 1402 1406 1407 1409 1412 1418 1420 1423 1428 1432 1436 1441 1445 1451 1454 1461 1466 1472 1469 1474 1478
1416 1409 1403 1399 1394 1391 1389 1387 1386 1387 1391 1394 1394 1395 1401 1403 1406 1410 1414 1419 1423 1427 1433 1439 1443 1446 1452 1458 1465 1464 1467 1470